SCP
0 0 0 0 0 0 0 0 0 1 1 0 0 0 1 1 2 2 3 3 2 1 1 1 1 2 2 3 3 2 2 3 3 4 4 4 4 3 2 2 2 2 2 2
0 0 0 0 0 0 0 0 0 1 1 0 0 0 1 1 1 1 2 2 2 2 2 2 1 2 3 3 2 2 3 3 3 4 4 4 4 3 2 2 2 2 2 2
0 0 0 0 0 0 0 0 0 0 0 0 0 0 1 1 1 1 1 1 2 2 2 2 2 2 3 2 2 2 3 3 4 4 4 4 4 4 3 2 2 2 1 2
0 0 0 0 0 0 0 0 0 0 0 0 0 0 1 1 1 1 1 1 2 2 2 3 3 3 3 2 2 2 2 3 4 4 4 4 4 4 4 3 2 1 1 2
0 0 0 0 0 0 0 0 0 0 0 0 0 0 0 0 1 1 1 1 1 2 2 2 3 3 3 3 2 2 3 3 4 4 5 5 5 5 4 4 2 1 2 2
0 0 0 0 0 0 0 0 0 0 0 0 0 0 0 1 1 1 1 1 2 2 2 2 3 4 4 4 4 4 5 5 5 4 5 6 6 5 5 5 3 2 2 2
0 0 0 0 0 0 0 0 0 0 0 0 0 0 1 1 1 1 1 2 2 2 2 2 3 4 4 5 6 7 7 6 5 4 5 5 6 6 6 5 5 4 3 2
0 0 0 0 0 0 0 0 0 0 0 0 0 0 1 1 2 2 2 2 3 3 2 2 3 3 3 4 4 5 5 5 5 4 4 5 6 6 5 5 5 4 4 3
0 0 0 0 0 0 0 0 0 0 0 0 0 1 1 2 2 2 3 3 3 3 3 2 2 2 2 2 2 2 3 4 4 4 4 5 5 6 6 6 5 5 5 5
0 0 0 0 0 0 0 0 0 0 0 0 0 0 1 2 2 3 3 3 3 3 3 2 2 2 2 2 2 2 2 3 4 4 4 4 5 6 7 7 6 6 6 7
0 0 0 0 0 0 0 0 0 0 0 0 0 0 1 2 2 2 3 2 2 2 3 2 2 2 2 3 3 3 3 3 4 4 5 5 6 7 8 8 7 7 8 7
0 0 0 0 0 0 0 0 0 0 0 0 0 1 1 2 2 2 2 2 2 2 3 3 3 3 3 4 4 4 4 4 5 5 5 5 5 6 6 6 7 7 8 7
0 0 0 0 0 0 0 0 0 0 0 0 0 1 1 1 1 1 2 2 3 3 3 4 4 5 4 4 4 4 4 5 5 5 5 5 5 5 5 5 6 7 7 8
0 0 0 0 0 0 0 0 0 0 0 0 0 1 1 1 1 1 2 3 4 5 5 5 6 6 5 4 4 4 3 4 4 5 5 4 4 5 5 6 6 7 7 7
0 0 0 0 0 0 0 0 0 0 0 0 0 1 1 1 1 2 3 4 5 6 6 6 6 5 4 4 3 3 3 3 4 4 4 4 4 5 6 6 7 7 8 7
1 0 0 0 0 0 0 0 0 0 0 0 0 1 1 1 2 2 4 5 5 5 5 4 4 4 4 3 3 3 3 3 4 4 4 5 5 6 6 7 7 8 8 8
1 1 0 0 0 0 0 0 0 0 0 1 1 1 1 2 2 3 4 4 4 3 3 3 3 3 3 3 4 4 4 4 4 4 5 5 5 6 6 6 7 8 8 8
1 1 1 0 0 0 0 1 0 0 1 1 1 2 2 2 2 3 3 3 3 2 3 3 3 3 3 4 4 4 4 4 4 4 5 5 5 6 6 6 6 7 8 8
1 1 1 1 0 1 1 1 1 1 1 1 2 2 2 2 2 2 2 2 2 2 3 4 4 5 5 4 4 4 4 4 4 4 5 5 5 5 5 5 5 6 7 7
1 1 1 1 1 1 1 1 1 1 1 1 2 2 3 2 2 2 2 2 2 3 3 4 5 6 6 5 5 4 4 4 4 4 5 5 5 5 4 4 4 5 6 7
1 1 1 1 1 1 1 1 1 1 2 2 2 3 3 3 3 3 3 4 4 4 4 5 6 7 6 6 6 6 6 6 5 5 5 5 5 4 4 4 5 5 6 6
1 1 1 1 1 1 2 2 2 2 2 3 3 4 4 3 3 4 4 6 8 8 7 6 6 6 6 6 6 7 8 9 8 7 7 6 5 5 4 5 5 5 5 5
1 1 1 2 2 2 3 3 3 3 3 3 3 4 4 3 3 3 5 8 11 13 11 8 7 6 6 6 6 7 9 10 11 11 10 10 8 7 6 6 6 5 5 4
1 1 2 2 2 3 4 4 3 3 4 4 4 4 3 3 3 3 5 8 11 12 12 10 7 6 7 7 7 8 8 9 12 13 14 13 12 11 10 9 7 7 6 6
2 2 2 2 2 3 3 4 3 4 4 4 4 4 3 3 3 3 5 8 8 8 9 9 7 6 7 8 10 10 9 9 11 13 14 13 13 12 11 11 9 7 6 6
2 2 2 2 2 2 3 3 4 4 4 4 4 3 3 3 3 4 6 7 6 6 6 8 7 7 6 8 11 13 11 9 9 11 11 12 11 11 12 11 9 6 6 5
Wind_Speed
7 9 7 5 5 5 5 5 3 1 1 3 3 1 2 4 5 4 4 5 5 4 5 7 7 7 7 7 6 6 5 5 4 3 2 2 2 1 1 1 1 1 1 1
8 9 5 4 5 6 6 6 3 2 2 4 4 2 2 4 5 4 4 5 5 5 5 7 7 7 8 8 7 7 7 6 5 3 2 1 1 1 1 0 1 1 1 2
9 2 3 6 7 7 7 6 4 3 3 5 6 4 4 4 4 4 5 5 5 5 6 7 8 8 8 8 8 6 6 6 5 4 3 2 2 2 2 1 1 1 1 1
8 4 5 7 7 8 5 3 5 5 7 3 4 4 3 3 4 4 5 5 5 5 5 6 7 8 8 8 7 7 6 6 5 5 4 3 2 2 1 1 1 1 1 1
6 5 7 7 6 7 4 2 5 6 8 6 5 6 2 3 3 3 4 4 4 5 6 6 7 7 7 7 7 7 7 6 6 5 5 4 3 2 1 1 1 1 1 1
6 4 5 5 4 4 4 5 5 8 9 7 4 6 1 1 1 1 2 3 3 4 5 6 6 6 7 6 7 7 7 7 6 6 5 5 3 3 2 2 2 2 2 2
8 8 6 5 6 8 9 8 6 7 6 4 2 5 1 2 1 1 0 1 2 3 5 6 7 7 7 7 7 7 7 7 7 7 6 6 5 4 4 3 3 3 2 2
8 8 7 6 7 6 8 10 7 6 5 3 5 4 1 3 1 0 1 1 2 3 4 5 6 7 7 7 8 8 8 8 7 7 6 5 6 5 4 4 3 3 2 1
6 5 5 4 5 7 7 8 7 9 8 7 3 2 3 2 1 1 1 1 0 2 3 4 5 6 6 7 7 8 8 7 7 7 6 6 6 5 3 3 4 3 2 2
5 5 5 5 6 4 7 6 7 7 7 7 5 5 2 2 1 1 1 0 0 1 2 3 4 5 5 6 7 7 7 6 6 6 6 5 6 5 4 4 3 3 2 2
8 7 5 7 7 6 6 7 7 6 7 8 6 2 3 1 1 1 1 1 1 1 2 3 4 5 5 6 7 7 7 6 5 5 6 5 5 5 5 4 4 3 3 3
7 7 6 6 3 4 7 7 8 7 6 8 8 1 5 3 1 1 1 1 1 1 1 3 3 4 4 5 5 5 5 5 5 5 5 5 5 5 5 5 4 4 4 4
5 7 8 8 8 6 6 6 8 8 7 8 9 2 6 3 1 1 1 1 1 0 0 1 2 3 3 3 4 4 5 5 5 5 5 5 5 6 5 5 5 4 4 4
6 7 9 8 4 4 7 7 7 9 8 8 8 5 0 2 2 1 1 1 0 1 1 1 2 2 2 2 3 4 4 4 4 4 4 4 5 5 5 5 5 5 5 5
6 8 8 7 6 6 8 8 9 9 9 9 7 6 4 3 3 2 1 0 0 1 1 1 1 1 2 2 2 3 3 3 3 4 4 4 4 4 5 6 5 5 5 5
5 6 8 9 9 8 9 9 10 10 9 9 8 7 2 2 2 2 1 1 1 0 0 0 1 1 2 2 2 3 3 3 3 3 4 4 4 4 5 5 5 5 5 5
5 6 8 9 8 9 11 9 10 8 7 8 8 4 2 2 2 2 2 2 1 1 1 0 1 1 1 1 2 2 3 3 3 3 4 3 4 4 4 4 5 5 5 5
6 7 7 8 8 13 3 1 4 6 6 5 4 3 2 3 2 2 3 2 2 2 1 1 1 1 1 1 1 2 2 3 3 3 3 3 3 4 4 4 5 4 4 5
7 8 7 8 11 9 4 3 4 6 6 4 5 4 2 2 3 1 2 2 2 2 2 1 1 1 1 0 1 1 2 2 3 3 3 3 3 3 4 4 4 4 4 5
5 7 8 8 10 9 2 2 2 6 7 2 4 4 4 3 5 2 4 3 3 2 1 1 1 1 0 0 1 2 2 2 3 3 3 3 3 3 4 4 4 4 4 5
8 8 10 10 10 6 2 2 4 7 1 2 1 2 2 2 4 4 3 3 3 2 2 1 1 1 0 1 1 2 2 3 3 2 2 3 3 3 4 4 4 4 4 4
8 7 8 8 10 4 4 3 3 2 4 2 1 1 1 1 2 2 2 2 3 3 3 2 2 2 1 1 1 2 2 2 2 2 2 2 3 3 2 3 4 4 4 5
6 5 4 4 2 4 1 0 2 2 1 1 2 2 1 1 1 2 2 2 2 2 2 2 2 2 1 1 1 2 2 2 2 2 2 2 3 3 3 3 4 4 5 5
4 2 4 3 2 1 1 0 0 1 1 2 2 2 2 2 2 2 2 2 2 3 2 2 2 2 2 2 2 2 2 2 2 2 2 3 3 3 3 3 4 4 4 4
2 3 4 4 2 2 2 1 0 1 1 2 2 2 2 2 2 1 1 2 2 2 2 2 2 2 2 2 2 2 2 2 3 3 3 3 3 3 3 3 3 4 2 2
4 5 5 3 1 2 1 1 2 2 2 2 2 2 1 1 1 1 1 2 2 2 2 2 2 2 2 2 2 2 2 3 3 3 3 4 4 3 3 3 2 1 2 1
Wind_Direction
201 222 222 226 247 273 279 282 274 267 243 261 274 281 166 175 194 200 195 188 188 192 182 178 181 179 175 176 180 184 182 176 189 184 185 177 172 176 173 161 138 209 231 200
205 223 235 243 238 245 252 254 245 201 200 259 273 256 191 189 206 209 212 203 197 187 183 183 186 186 186 185 187 187 188 181 189 180 187 190 205 196 171 152 135 251 242 238
229 210 205 222 223 231 237 257 262 255 229 231 255 218 187 182 201 205 216 217 206 200 193 187 190 192 190 189 191 191 188 183 185 183 184 176 187 212 191 182 178 232 249 241
235 218 213 226 229 247 242 244 250 240 245 235 259 270 165 180 198 205 210 209 210 204 205 197 192 192 192 192 187 187 184 186 184 190 193 200 208 217 218 237 174 172 180 241
213 217 226 235 242 250 266 250 243 245 257 258 239 268 148 179 217 215 203 208 214 215 210 202 198 191 193 190 183 180 180 186 189 196 196 214 220 219 215 199 165 225 183 221
240 223 241 249 244 228 204 204 213 230 245 246 245 267 256 144 266 239 176 190 204 213 205 194 190 186 188 185 181 176 176 187 189 194 201 213 218 223 225 214 205 212 192 196
217 214 204 217 215 195 219 232 229 221 223 233 189 253 314 52 40 341 290 177 203 186 183 184 183 186 187 185 183 180 180 188 192 194 202 207 211 215 221 225 216 235 224 198
216 205 190 207 235 230 224 247 265 274 269 235 189 240 78 76 73 152 176 180 198 182 178 185 185 184 186 187 187 185 187 192 194 198 204 209 213 218 214 220 243 232 246 230
224 205 162 201 232 247 230 239 267 267 267 271 235 207 176 163 165 181 165 153 188 200 188 184 182 182 185 187 186 187 188 194 198 200 201 206 214 227 226 215 229 232 232 223
241 230 192 184 205 220 262 250 240 253 269 260 249 244 242 162 190 180 192 131 155 191 175 168 172 177 185 187 185 186 185 191 200 203 208 204 208 213 218 226 225 238 242 245
235 230 197 196 220 221 210 224 249 258 264 273 270 276 62 99 204 261 285 318 303 225 180 170 170 174 182 181 178 184 186 189 196 205 208 210 209 207 207 214 223 223 233 234
224 239 228 218 206 272 248 244 242 249 251 260 271 267 97 89 77 283 316 349 353 274 188 162 165 169 176 179 178 181 187 188 194 199 204 205 209 212 212 211 219 222 229 234
205 235 226 209 191 196 228 237 247 255 251 255 260 226 111 93 49 355 327 6 13 24 163 142 136 156 174 175 181 188 194 193 199 197 198 203 209 210 217 216 212 214 223 230
233 236 251 257 264 213 221 228 234 247 251 251 253 269 139 14 327 333 335 340 29 106 114 119 127 150 167 178 189 200 201 198 200 201 205 209 216 216 217 217 216 216 223 225
234 237 240 257 258 246 237 234 229 239 258 266 265 270 299 326 317 320 320 271 165 122 115 137 165 169 176 175 190 203 210 206 202 204 216 218 220 220 223 218 218 223 228 230
234 243 235 237 239 241 243 240 238 239 249 255 262 268 316 331 329 309 292 287 277 326 88 173 198 186 182 190 202 203 206 202 203 214 223 221 223 220 224 223 219 221 226 233
217 226 238 241 233 239 239 235 235 233 241 254 261 279 310 300 303 302 295 287 306 311 316 290 241 228 226 222 217 216 199 193 205 223 229 227 228 228 229 229 222 224 226 227
223 233 240 245 226 240 235 172 246 243 238 259 267 274 292 302 309 328 330 314 302 316 309 264 252 246 245 232 213 230 197 193 204 218 228 226 229 233 234 233 231 233 233 232
225 228 242 244 238 238 204 191 234 241 237 245 259 263 262 273 243 202 41 357 317 311 319 303 278 254 243 237 201 213 213 206 214 218 224 227 231 236 235 232 232 235 238 237
195 223 240 239 251 249 200 138 219 245 235 203 248 258 262 255 263 32 45 11 349 329 327 316 301 267 181 223 219 218 221 222 234 235 229 223 219 230 238 237 237 231 232 238
200 212 232 239 245 247 79 120 195 231 265 55 308 288 278 286 336 21 20 14 7 2 356 337 314 322 356 256 232 240 242 244 248 247 240 231 224 231 236 237 236 238 236 240
226 225 226 238 245 233 94 174 231 358 37 30 352 333 336 340 352 350 6 9 8 12 10 358 359 0 341 295 257 264 277 279 255 240 240 241 238 241 229 233 235 237 238 231
241 274 270 261 304 50 83 4 27 1 333 343 332 335 322 300 317 330 342 345 353 2 360 345 359 1 334 301 276 279 289 277 264 246 240 241 245 253 251 242 236 235 234 243
187 241 247 239 216 166 193 169 324 318 311 320 320 310 297 293 306 316 332 340 339 343 344 342 344 333 327 323 302 293 288 272 261 261 258 249 244 250 255 262 253 254 257 262
268 215 226 232 232 231 178 156 42 351 313 306 315 310 294 292 303 329 334 346 344 343 342 334 329 323 322 321 311 300 290 281 273 265 262 261 254 256 254 252 272 269 277 289
238 242 250 257 232 264 283 328 326 308 306 308 308 322 328 331 344 334 344 343 334 326 326 324 330 335 330 326 322 315 294 274 268 267 267 270 266 257 257 256 256 237 257 230